Location: Red Bud (historical)
(37.7759°N, 88.4053°W)
Time: 00:15:53
(UTC+00:00)

OAO 2 Rocket - Pass Details

Date: 29 October 2020
Orbit: 676 x 746 km, 35.0° (Epoch: 28 November)

Event Time Altitude Azimuth Distance (km) Brightness Sun altitude
Rises 23:35:08 0° 257° (WSW) 3,076 9.2 -8.0°
Reaches altitude 10° 23:37:35 10° 254° (WSW) 2,147 7.5 -8.5°
Maximum altitude 23:42:32 61° 174° (S) 775 3.6 -9.5°
Enters shadow 23:46:56 13° 96° (E) 1,942 5.0 -10.3°
